Weather History for ROTM - March, 2014

Change the Weather History Date:

Sunday, March 30, 2014

  Actual Average (RODN) Record (RODN)
Temperature  
Mean Temperature 68 °F -  
Max Temperature 75 °F 74 °F 78 °F (1998)
Min Temperature 62 °F 62 °F 46 °F (2003)
Cooling Degree Days 4    
Growing Degree Days 18 (Base 50)    
Moisture  
Dew Point 65 °F    
Average Humidity 86    
Maximum Humidity 100    
Minimum Humidity 65    
Precipitation  
Precipitation 1.81 in - - ()
Sea Level Pressure  
Sea Level Pressure 29.84 in    
Wind  
Wind Speed 15 mph ()    
Max Wind Speed 26 mph    
Max Gust Speed 32 mph    
Visibility 5.2 miles    
Events Rain , Thunderstorm    
Averages and records for this station are not official NWS values.
T = Trace of Precipitation, MM = Missing Value Source: Averaged Metar Reports

Daily Weather History Graph

Daily Weather History Graph

Search for Another Location

Airport or City:

Trip Planner

Search our weather history database for the weather conditions in past years. The results will help you decide how hot, cold, wet, or windy it might be!

Date:

Astronomy

Mar. 30, 2014 Rise Set
Actual Time 6:22 AM JST 6:44 PM JST
Civil Twilight 5:59 AM JST 7:07 PM JST
Nautical Twilight 5:32 AM JST 7:35 PM JST
Astronomical Twilight 5:05 AM JST 8:02 PM JST
Moon 5:42 AM JST (3/30) 6:17 PM JST (3/30)
Length of Visible Light 13h 08m
Length of Day
12h 21m
Waning Crescent, 1% of the Moon is Illuminated
Mar 30
Waning Crescent
Mar 31
New
Apr 7
First Quarter
Apr 15
Full
Apr 22
Last Quarter

Hourly Weather History & Observations

Time (JST) Temp. Dew Point Humidity Pressure Visibility Wind Dir Wind Speed Gust Speed Precip Events Conditions
12:58 AM 75.2 °F 73.4 °F 94% 29.77 in 5.6 mi SSW 23.0 mph 31.1 mph N/A   Overcast
1:58 AM 74.5 °F 72.9 °F 95% 29.75 in - SSW 20.7 mph 28.8 mph N/A   Overcast
2:21 AM 75.2 °F 73.4 °F 94% 29.75 in - SW 20.7 mph 31.1 mph N/A Rain , Thunderstorm Thunderstorms and Rain
2:31 AM 75.2 °F 73.4 °F 94% 29.75 in - SW 20.7 mph 31.1 mph N/A Rain , Thunderstorm Thunderstorms and Rain
2:58 AM 73.2 °F 72.9 °F 99% 29.75 in - SSW 26.5 mph 32.2 mph 0.74 in Rain , Thunderstorm Thunderstorms and Rain
3:15 AM 73.4 °F 73.4 °F 100% 29.75 in 1.7 mi West 26.5 mph 32.2 mph N/A Rain , Thunderstorm Heavy Thunderstorms and Rain
3:58 AM 73.6 °F 72.9 °F 98% 29.77 in - WSW 19.6 mph 29.9 mph 0.94 in Rain , Thunderstorm Thunderstorms and Rain
4:58 AM 73.4 °F 69.4 °F 87% 29.73 in 3.7 mi West 11.5 mph - 0.11 in Rain , Thunderstorm Light Thunderstorms and Rain
5:58 AM 72.1 °F 71.2 °F 97% 29.78 in 5.0 mi WSW 12.7 mph 23.0 mph 0.02 in   Overcast
6:58 AM 74.1 °F 74.1 °F 100% 29.80 in 3.7 mi NW 15.0 mph 21.9 mph N/A   Overcast
7:58 AM 68.0 °F 66.2 °F 94% 29.83 in 5.0 mi NNW 15.0 mph 20.7 mph N/A   Overcast
8:58 AM 68.0 °F 65.8 °F 93% 29.85 in 5.0 mi NNW 12.7 mph - N/A   Overcast
9:58 AM 68.5 °F 65.1 °F 89% 29.87 in 5.0 mi NNW 15.0 mph - N/A   Overcast
10:58 AM 69.6 °F 63.9 °F 82% 29.88 in 5.6 mi NNW 17.3 mph 25.3 mph N/A   Mostly Cloudy
11:58 AM 70.9 °F 62.1 °F 74% 29.88 in 5.6 mi NNW 13.8 mph 21.9 mph N/A   Mostly Cloudy
12:58 PM 70.7 °F 62.6 °F 75% 29.88 in 5.6 mi NNW 15.0 mph 23.0 mph N/A   Overcast
1:58 PM 70.2 °F 62.8 °F 77% 29.88 in 5.0 mi NNW 15.0 mph 23.0 mph N/A   Overcast
2:58 PM 70.7 °F 63.0 °F 76% 29.86 in 5.0 mi NNW 16.1 mph 23.0 mph N/A   Mostly Cloudy
3:58 PM 69.1 °F 58.1 °F 68% 29.84 in 5.6 mi NNW 16.1 mph - N/A   Scattered Clouds
4:58 PM 69.8 °F 57.6 °F 65% 29.85 in 5.6 mi North 12.7 mph - N/A   Scattered Clouds
5:58 PM 66.2 °F 59.4 °F 79% 29.86 in 5.6 mi North 13.8 mph 19.6 mph N/A   Scattered Clouds
6:58 PM 64.4 °F 58.1 °F 80% 29.89 in 5.6 mi North 10.4 mph - N/A   Scattered Clouds
7:58 PM 63.1 °F 57.9 °F 83% 29.91 in 6.2 mi North 9.2 mph - N/A   Scattered Clouds
8:58 PM 63.1 °F 57.7 °F 83% 29.94 in 6.2 mi NNE 5.8 mph - N/A   Scattered Clouds
9:58 PM 63.1 °F 57.0 °F 80% 29.96 in 6.2 mi North 10.4 mph - N/A   Scattered Clouds
10:58 PM 62.8 °F 56.7 °F 80% 29.97 in 6.2 mi NNE 5.8 mph - N/A   Mostly Cloudy
11:58 PM 62.4 °F 56.3 °F 80% 29.95 in 6.2 mi NNE 6.9 mph - N/A   Mostly Cloudy